owner,sensor,date,latitude,longitude,vertical_datum,direction_of_sea_water_velocity,sea_water_speed,upward_sea_water_velocity,qcFlag 
TABS,ioos:station:wmo:42050:1,2000-07-01T00:00:00Z,28.8425,-94.2433,2.0,127.1185609,6.910065123,-99999.0,'11133222,11111222,99999999' 
TABS,ioos:station:wmo:42050:1,2000-07-01T00:30:00Z,28.8425,-94.2433,2.0,143.8231332,4.794350842,-99999.0,'11133222,11111222,99999999' 
TABS,ioos:station:wmo:42050:1,2000-07-01T01:00:00Z,28.8425,-94.2433,2.0,169.09589,4.704944208,-99999.0,'11133222,11111222,99999999' 
TABS,ioos:station:wmo:42050:1,2000-07-01T01:30:00Z,28.8425,-94.2433,2.0,179.9997895,2.09,-99999.0,'11133222,11111222,99999999' 
TABS,ioos:station:wmo:42050:1,2000-07-01T02:00:00Z,28.8425,-94.2433,2.0,155.8788628,1.468196172,-99999.0,'11133222,11111222,99999999' 
TABS,ioos:station:wmo:42050:1,2000-07-01T02:30:00Z,28.8425,-94.2433,2.0,50.96457838,0.952680429,-99999.0,'11133222,11111222,99999999' 
TABS,ioos:station:wmo:42050:1,2000-07-01T03:00:00Z,28.8425,-94.2433,2.0,29.07289538,3.066349621,-99999.0,'11133222,11111222,99999999' 
TABS,ioos:station:wmo:42050:1,2000-07-01T03:30:00Z,28.8425,-94.2433,2.0,18.38708966,3.772598574,-99999.0,'11133222,11111222,99999999' 
TABS,ioos:station:wmo:42050:1,2000-07-01T04:00:00Z,28.8425,-94.2433,2.0,36.59121316,5.754068126,-99999.0,'11133222,11111222,99999999' 
TABS,ioos:station:wmo:42050:1,2000-07-01T04:30:00Z,28.8425,-94.2433,2.0,31.64695582,10.50160464,-99999.0,'11111222,11111222,99999999' 
TABS,ioos:station:wmo:42050:1,2000-07-01T05:00:00Z,28.8425,-94.2433,2.0,31.84180406,12.98396704,-99999.0,'11111222,11111222,99999999' 
TABS,ioos:station:wmo:42050:1,2000-07-01T05:30:00Z,28.8425,-94.2433,2.0,36.52670988,15.02026964,-99999.0,'11111222,11111222,99999999' 
TABS,ioos:station:wmo:42050:1,2000-07-01T06:00:00Z,28.8425,-94.2433,2.0,44.6506038,17.38807925,-99999.0,'11111222,11111222,99999999' 
TABS,ioos:station:wmo:42050:1,2000-07-01T06:30:00Z,28.8425,-94.2433,2.0,49.40576041,17.85771542,-99999.0,'11111222,11111222,99999999' 
TABS,ioos:station:wmo:42050:1,2000-07-01T07:00:00Z,28.8425,-94.2433,2.0,57.28982114,19.30084195,-99999.0,'11111222,11111222,99999999' 
TABS,ioos:station:wmo:42050:1,2000-07-01T07:30:00Z,28.8425,-94.2433,2.0,66.07209637,20.21757651,-99999.0,'11111222,11111222,99999999' 
TABS,ioos:station:wmo:42050:1,2000-07-01T08:00:00Z,28.8425,-94.2433,2.0,71.29667174,20.92502091,-99999.0,'11111222,11111222,99999999' 
TABS,ioos:station:wmo:42050:1,2000-07-01T08:30:00Z,28.8425,-94.2433,2.0,75.23856675,22.80260073,-99999.0,'11111222,11111222,99999999' 
TABS,ioos:station:wmo:42050:1,2000-07-01T09:00:00Z,28.8425,-94.2433,2.0,80.48748464,22.50951799,-99999.0,'11111222,11111222,99999999' 
TABS,ioos:station:wmo:42050:1,2000-07-01T09:30:00Z,28.8425,-94.2433,2.0,84.55390084,23.4960635,-99999.0,'11111222,11111222,99999999' 
TABS,ioos:station:wmo:42050:1,2000-07-01T10:00:00Z,28.8425,-94.2433,2.0,87.93889501,24.74600978,-99999.0,'11111222,11111222,99999999' 
TABS,ioos:station:wmo:42050:1,2000-07-01T10:30:00Z,28.8425,-94.2433,2.0,91.71395592,24.7410691,-99999.0,'11111222,11111222,99999999' 
TABS,ioos:station:wmo:42050:1,2000-07-01T11:00:00Z,28.8425,-94.2433,2.0,95.24545585,24.39215038,-99999.0,'11111222,11111222,99999999' 
TABS,ioos:station:wmo:42050:1,2000-07-01T11:30:00Z,28.8425,-94.2433,2.0,97.29805422,24.63961242,-99999.0,'11111222,11111222,99999999' 
TABS,ioos:station:wmo:42050:1,2000-07-01T12:00:00Z,28.8425,-94.2433,2.0,99.34060501,24.7684073,-99999.0,'11111222,11111222,99999999' 
TABS,ioos:station:wmo:42050:1,2000-07-01T12:30:00Z,28.8425,-94.2433,2.0,99.80066383,24.49752028,-99999.0,'11111222,11111222,99999999' 
TABS,ioos:station:wmo:42050:1,2000-07-01T13:00:00Z,28.8425,-94.2433,2.0,92.64288031,25.80745047,-99999.0,'11111222,11111222,99999999' 
TABS,ioos:station:wmo:42050:1,2000-07-01T13:30:00Z,28.8425,-94.2433,2.0,90.6992612,24.58183069,-99999.0,'11111222,11111222,99999999' 
TABS,ioos:station:wmo:42050:1,2000-07-01T14:00:00Z,28.8425,-94.2433,2.0,86.97178589,25.36541937,-99999.0,'11111222,11111222,99999999' 
TABS,ioos:station:wmo:42050:1,2000-07-01T14:30:00Z,28.8425,-94.2433,2.0,82.05948719,26.92818783,-99999.0,'11111222,11111222,99999999' 
TABS,ioos:station:wmo:42050:1,2000-07-01T15:00:00Z,28.8425,-94.2433,2.0,78.4618565,29.04699124,-99999.0,'11111222,11111222,99999999' 
TABS,ioos:station:wmo:42050:1,2000-07-01T15:30:00Z,28.8425,-94.2433,2.0,77.8615039,28.34370653,-99999.0,'11111222,11111222,99999999' 
TABS,ioos:station:wmo:42050:1,2000-07-01T16:00:00Z,28.8425,-94.2433,2.0,76.67006777,29.71044597,-99999.0,'11111222,11111222,99999999' 
TABS,ioos:station:wmo:42050:1,2000-07-01T16:30:00Z,28.8425,-94.2433,2.0,75.35163124,30.64612537,-99999.0,'11111222,11111222,99999999' 
TABS,ioos:station:wmo:42050:1,2000-07-01T17:00:00Z,28.8425,-94.2433,2.0,72.7322669,30.11745673,-99999.0,'11111222,11111222,99999999' 
TABS,ioos:station:wmo:42050:1,2000-07-01T17:30:00Z,28.8425,-94.2433,2.0,72.31045311,28.92780151,-99999.0,'11111222,11111222,99999999' 
TABS,ioos:station:wmo:42050:1,2000-07-01T18:00:00Z,28.8425,-94.2433,2.0,74.77384321,27.79572629,-99999.0,'11111222,11111222,99999999' 
TABS,ioos:station:wmo:42050:1,2000-07-01T18:30:00Z,28.8425,-94.2433,2.0,72.90938884,27.90213074,-99999.0,'11111222,11111222,99999999' 
TABS,ioos:station:wmo:42050:1,2000-07-01T19:00:00Z,28.8425,-94.2433,2.0,74.3928577,27.69099854,-99999.0,'11111222,11111222,99999999' 
TABS,ioos:station:wmo:42050:1,2000-07-01T19:30:00Z,28.8425,-94.2433,2.0,80.42842673,23.27400696,-99999.0,'11111222,11111222,99999999' 
TABS,ioos:station:wmo:42050:1,2000-07-01T20:00:00Z,28.8425,-94.2433,2.0,81.70599126,22.73781872,-99999.0,'11111222,11111222,99999999' 
TABS,ioos:station:wmo:42050:1,2000-07-01T20:30:00Z,28.8425,-94.2433,2.0,88.01118031,21.32284456,-99999.0,'11111222,11111222,99999999' 
TABS,ioos:station:wmo:42050:1,2000-07-01T21:00:00Z,28.8425,-94.2433,2.0,96.79636785,20.11132268,-99999.0,'11111222,11111222,99999999' 
TABS,ioos:station:wmo:42050:1,2000-07-01T21:30:00Z,28.8425,-94.2433,2.0,103.7047702,18.86716195,-99999.0,'11111222,11111222,99999999' 
TABS,ioos:station:wmo:42050:1,2000-07-01T22:00:00Z,28.8425,-94.2433,2.0,107.9899959,18.32595154,-99999.0,'11111222,11111222,99999999' 
TABS,ioos:station:wmo:42050:1,2000-07-01T22:30:00Z,28.8425,-94.2433,2.0,114.9438469,16.59826798,-99999.0,'11111222,11111222,99999999' 
TABS,ioos:station:wmo:42050:1,2000-07-01T23:00:00Z,28.8425,-94.2433,2.0,123.9882344,14.9188639,-99999.0,'11111222,11111222,99999999' 
TABS,ioos:station:wmo:42050:1,2000-07-01T23:30:00Z,28.8425,-94.2433,2.0,129.4690534,15.70015287,-99999.0,'11111222,11111222,99999999' 
TABS,ioos:station:wmo:42050:1,2000-07-02T00:00:00Z,28.8425,-94.2433,2.0,134.3901302,16.61087897,-99999.0,'11111222,11111222,99999999' 
TABS,ioos:station:wmo:42050:1,2000-07-02T00:30:00Z,28.8425,-94.2433,2.0,138.7711617,17.63099543,-99999.0,'11111222,11111222,99999999' 
TABS,ioos:station:wmo:42050:1,2000-07-02T01:00:00Z,28.8425,-94.2433,2.0,132.0532113,12.24206273,-99999.0,'11111222,11111222,99999999' 
TABS,ioos:station:wmo:42050:1,2000-07-02T01:30:00Z,28.8425,-94.2433,2.0,127.0452185,9.14604286,-99999.0,'11133222,11111222,99999999' 
TABS,ioos:station:wmo:42050:1,2000-07-02T02:00:00Z,28.8425,-94.2433,2.0,121.7909042,3.682458418,-99999.0,'11133222,11111222,99999999' 
TABS,ioos:station:wmo:42050:1,2000-07-02T02:30:00Z,28.8425,-94.2433,2.0,90.0,1.94,-99999.0,'11133222,11111222,99999999' 
TABS,ioos:station:wmo:42050:1,2000-07-02T03:00:00Z,28.8425,-94.2433,2.0,38.23773137,3.603026506,-99999.0,'11133222,11111222,99999999' 
TABS,ioos:station:wmo:42050:1,2000-07-02T03:30:00Z,28.8425,-94.2433,2.0,0.000210459,7.45,-99999.0,'11133222,11111222,99999999' 
TABS,ioos:station:wmo:42050:1,2000-07-02T04:00:00Z,28.8425,-94.2433,2.0,358.5019737,11.47392261,-99999.0,'11111222,11111222,99999999' 
TABS,ioos:station:wmo:42050:1,2000-07-02T04:30:00Z,28.8425,-94.2433,2.0,2.585323531,16.4066968,-99999.0,'11111222,11111222,99999999' 
TABS,ioos:station:wmo:42050:1,2000-07-02T05:00:00Z,28.8425,-94.2433,2.0,1.254049202,20.56492402,-99999.0,'11111222,11111222,99999999' 
TABS,ioos:station:wmo:42050:1,2000-07-02T05:30:00Z,28.8425,-94.2433,2.0,5.213650379,24.54152603,-99999.0,'11111222,11111222,99999999' 
TABS,ioos:station:wmo:42050:1,2000-07-02T06:00:00Z,28.8425,-94.2433,2.0,5.768474274,29.65013322,-99999.0,'11111222,11111222,99999999' 
TABS,ioos:station:wmo:42050:1,2000-07-02T06:30:00Z,28.8425,-94.2433,2.0,8.811451682,32.11905976,-99999.0,'11111222,11111222,99999999' 
TABS,ioos:station:wmo:42050:1,2000-07-02T07:00:00Z,28.8425,-94.2433,2.0,7.374356799,33.6583838,-99999.0,'11111222,11111222,99999999' 
TABS,ioos:station:wmo:42050:1,2000-07-02T07:30:00Z,28.8425,-94.2433,2.0,13.16366673,35.34881752,-99999.0,'11111222,11111222,99999999' 
TABS,ioos:station:wmo:42050:1,2000-07-02T08:00:00Z,28.8425,-94.2433,2.0,16.29791523,36.63200786,-99999.0,'11111222,11111222,99999999' 
TABS,ioos:station:wmo:42050:1,2000-07-02T08:30:00Z,28.8425,-94.2433,2.0,21.2924682,34.06529759,-99999.0,'11111222,11111222,99999999' 
TABS,ioos:station:wmo:42050:1,2000-07-02T09:00:00Z,28.8425,-94.2433,2.0,23.2951653,32.77150592,-99999.0,'11111222,11111222,99999999' 
TABS,ioos:station:wmo:42050:1,2000-07-02T09:30:00Z,28.8425,-94.2433,2.0,23.86967031,31.28590258,-99999.0,'11111222,11111222,99999999' 
TABS,ioos:station:wmo:42050:1,2000-07-02T10:00:00Z,28.8425,-94.2433,2.0,26.69541667,29.51617353,-99999.0,'11111222,11111222,99999999' 
TABS,ioos:station:wmo:42050:1,2000-07-02T10:30:00Z,28.8425,-94.2433,2.0,37.45270969,28.90949498,-99999.0,'11111222,11111222,99999999' 
TABS,ioos:station:wmo:42050:1,2000-07-02T11:00:00Z,28.8425,-94.2433,2.0,45.44725259,27.18201243,-99999.0,'11111222,11111222,99999999' 
TABS,ioos:station:wmo:42050:1,2000-07-02T11:30:00Z,28.8425,-94.2433,2.0,55.33849271,26.99004446,-99999.0,'11111222,11111222,99999999' 
TABS,ioos:station:wmo:42050:1,2000-07-02T12:00:00Z,28.8425,-94.2433,2.0,65.67797172,30.73817984,-99999.0,'11111222,11111222,99999999' 
TABS,ioos:station:wmo:42050:1,2000-07-02T12:30:00Z,28.8425,-94.2433,2.0,75.75333798,29.05353851,-99999.0,'11111222,11111222,99999999' 
TABS,ioos:station:wmo:42050:1,2000-07-02T13:00:00Z,28.8425,-94.2433,2.0,79.35049097,30.6275301,-99999.0,'11111222,11111222,99999999' 
TABS,ioos:station:wmo:42050:1,2000-07-02T13:30:00Z,28.8425,-94.2433,2.0,82.67361047,30.34776598,-99999.0,'11111222,11111222,99999999' 
TABS,ioos:station:wmo:42050:1,2000-07-02T14:00:00Z,28.8425,-94.2433,2.0,83.7143538,31.32833382,-99999.0,'11111222,11111222,99999999' 
TABS,ioos:station:wmo:42050:1,2000-07-02T14:30:00Z,28.8425,-94.2433,2.0,82.35522409,34.72867403,-99999.0,'11111222,11111222,99999999' 
TABS,ioos:station:wmo:42050:1,2000-07-02T15:00:00Z,28.8425,-94.2433,2.0,79.82247215,35.42745404,-99999.0,'11111222,11111222,99999999' 
TABS,ioos:station:wmo:42050:1,2000-07-02T15:30:00Z,28.8425,-94.2433,2.0,75.25564143,35.12669213,-99999.0,'11111222,11111222,99999999' 
TABS,ioos:station:wmo:42050:1,2000-07-02T16:00:00Z,28.8425,-94.2433,2.0,75.91106083,34.2605969,-99999.0,'11111222,11111222,99999999' 
TABS,ioos:station:wmo:42050:1,2000-07-02T16:30:00Z,28.8425,-94.2433,2.0,72.88951623,32.42517078,-99999.0,'11111222,11111222,99999999' 
TABS,ioos:station:wmo:42050:1,2000-07-02T17:00:00Z,28.8425,-94.2433,2.0,69.63754644,30.83700699,-99999.0,'11111222,11111222,99999999' 
TABS,ioos:station:wmo:42050:1,2000-07-02T17:30:00Z,28.8425,-94.2433,2.0,70.36213736,31.48108797,-99999.0,'11111222,11111222,99999999' 
TABS,ioos:station:wmo:42050:1,2000-07-02T18:00:00Z,28.8425,-94.2433,2.0,73.08250486,28.66028611,-99999.0,'11111222,11111222,99999999' 
TABS,ioos:station:wmo:42050:1,2000-07-02T18:30:00Z,28.8425,-94.2433,2.0,73.74742907,27.15520024,-99999.0,'11111222,11111222,99999999' 
TABS,ioos:station:wmo:42050:1,2000-07-02T19:00:00Z,28.8425,-94.2433,2.0,78.33691711,27.99807136,-99999.0,'11111222,11111222,99999999' 
TABS,ioos:station:wmo:42050:1,2000-07-02T19:30:00Z,28.8425,-94.2433,2.0,80.33547693,28.41325395,-99999.0,'11111222,11111222,99999999' 
TABS,ioos:station:wmo:42050:1,2000-07-02T20:00:00Z,28.8425,-94.2433,2.0,83.11716596,26.11822735,-99999.0,'11111222,11111222,99999999' 
TABS,ioos:station:wmo:42050:1,2000-07-02T20:30:00Z,28.8425,-94.2433,2.0,83.74698954,23.22819408,-99999.0,'11111222,11111222,99999999' 
TABS,ioos:station:wmo:42050:1,2000-07-02T21:00:00Z,28.8425,-94.2433,2.0,97.33858918,18.6326273,-99999.0,'11111222,11111222,99999999' 
TABS,ioos:station:wmo:42050:1,2000-07-02T21:30:00Z,28.8425,-94.2433,2.0,96.37166496,20.09412352,-99999.0,'11111222,11111222,99999999' 
TABS,ioos:station:wmo:42050:1,2000-07-02T22:00:00Z,28.8425,-94.2433,2.0,105.0578473,16.05113392,-99999.0,'11111222,11111222,99999999' 
TABS,ioos:station:wmo:42050:1,2000-07-02T22:30:00Z,28.8425,-94.2433,2.0,101.3227699,17.47002576,-99999.0,'11111222,11111222,99999999' 
TABS,ioos:station:wmo:42050:1,2000-07-02T23:00:00Z,28.8425,-94.2433,2.0,100.1452019,18.62115195,-99999.0,'11111222,11111222,99999999' 
TABS,ioos:station:wmo:42050:1,2000-07-02T23:30:00Z,28.8425,-94.2433,2.0,102.6235341,17.70805749,-99999.0,'11111222,11111222,99999999' 
TABS,ioos:station:wmo:42050:1,2000-07-03T00:00:00Z,28.8425,-94.2433,2.0,115.8468361,16.05622932,-99999.0,'11111222,11111222,99999999' 
TABS,ioos:station:wmo:42050:1,2000-07-03T00:30:00Z,28.8425,-94.2433,2.0,122.1969176,14.26341123,-99999.0,'11111222,11111222,99999999' 
TABS,ioos:station:wmo:42050:1,2000-07-03T01:00:00Z,28.8425,-94.2433,2.0,140.165658,12.80112886,-99999.0,'11111222,11111222,99999999' 
TABS,ioos:station:wmo:42050:1,2000-07-03T01:30:00Z,28.8425,-94.2433,2.0,139.1115189,8.875821089,-99999.0,'11133222,11111222,99999999' 
TABS,ioos:station:wmo:42050:1,2000-07-03T02:00:00Z,28.8425,-94.2433,2.0,141.1590434,5.931509083,-99999.0,'11133222,11111222,99999999' 
TABS,ioos:station:wmo:42050:1,2000-07-03T02:30:00Z,28.8425,-94.2433,2.0,90.0,2.98,-99999.0,'11133222,11111222,99999999' 
TABS,ioos:station:wmo:42050:1,2000-07-03T03:00:00Z,28.8425,-94.2433,2.0,68.48028917,5.288667129,-99999.0,'11133222,11111222,99999999' 
TABS,ioos:station:wmo:42050:1,2000-07-03T03:30:00Z,28.8425,-94.2433,2.0,43.52120022,8.219318707,-99999.0,'11133222,11111222,99999999' 
TABS,ioos:station:wmo:42050:1,2000-07-03T04:00:00Z,28.8425,-94.2433,2.0,43.39859387,15.18044136,-99999.0,'11111222,11111222,99999999' 
TABS,ioos:station:wmo:42050:1,2000-07-03T04:30:00Z,28.8425,-94.2433,2.0,42.57732445,17.39623522,-99999.0,'11111222,11111222,99999999' 
TABS,ioos:station:wmo:42050:1,2000-07-03T05:00:00Z,28.8425,-94.2433,2.0,36.64053455,22.47018024,-99999.0,'11111222,11111222,99999999' 
TABS,ioos:station:wmo:42050:1,2000-07-03T05:30:00Z,28.8425,-94.2433,2.0,26.42172157,26.78817836,-99999.0,'11111222,11111222,99999999' 
TABS,ioos:station:wmo:42050:1,2000-07-03T06:00:00Z,28.8425,-94.2433,2.0,26.86582526,24.71783567,-99999.0,'11111222,11111222,99999999' 
TABS,ioos:station:wmo:42050:1,2000-07-03T06:30:00Z,28.8425,-94.2433,2.0,26.41612185,25.78195105,-99999.0,'11111222,11111222,99999999' 
TABS,ioos:station:wmo:42050:1,2000-07-03T07:00:00Z,28.8425,-94.2433,2.0,31.80460384,26.29870909,-99999.0,'11111222,11111222,99999999' 
TABS,ioos:station:wmo:42050:1,2000-07-03T07:30:00Z,28.8425,-94.2433,2.0,33.42844427,27.31926976,-99999.0,'11111222,11111222,99999999' 
TABS,ioos:station:wmo:42050:1,2000-07-03T08:00:00Z,28.8425,-94.2433,2.0,34.43159833,28.72200724,-99999.0,'11111222,11111222,99999999' 
TABS,ioos:station:wmo:42050:1,2000-07-03T08:30:00Z,28.8425,-94.2433,2.0,38.15403995,29.18532851,-99999.0,'11111222,11111222,99999999' 
TABS,ioos:station:wmo:42050:1,2000-07-03T09:00:00Z,28.8425,-94.2433,2.0,43.7818087,29.93152519,-99999.0,'11111222,11111222,99999999' 
TABS,ioos:station:wmo:42050:1,2000-07-03T09:30:00Z,28.8425,-94.2433,2.0,46.10492416,27.504496,-99999.0,'11111222,11111222,99999999' 
TABS,ioos:station:wmo:42050:1,2000-07-03T10:00:00Z,28.8425,-94.2433,2.0,48.57292381,28.82112073,-99999.0,'11111222,11111222,99999999' 
TABS,ioos:station:wmo:42050:1,2000-07-03T10:30:00Z,28.8425,-94.2433,2.0,53.88166014,27.29634774,-99999.0,'11111222,11111222,99999999' 
TABS,ioos:station:wmo:42050:1,2000-07-03T11:00:00Z,28.8425,-94.2433,2.0,59.66789583,28.31613674,-99999.0,'11111222,11111222,99999999' 
TABS,ioos:station:wmo:42050:1,2000-07-03T11:30:00Z,28.8425,-94.2433,2.0,61.45581943,29.0056891,-99999.0,'11111222,11111222,99999999' 
TABS,ioos:station:wmo:42050:1,2000-07-03T12:00:00Z,28.8425,-94.2433,2.0,63.67026004,31.5869625,-99999.0,'11111222,11111222,99999999' 
TABS,ioos:station:wmo:42050:1,2000-07-03T12:30:00Z,28.8425,-94.2433,2.0,65.15180514,31.19820828,-99999.0,'11111222,11111222,99999999' 
TABS,ioos:station:wmo:42050:1,2000-07-03T13:00:00Z,28.8425,-94.2433,2.0,68.24764283,32.56911727,-99999.0,'11111222,11111222,99999999' 
TABS,ioos:station:wmo:42050:1,2000-07-03T13:30:00Z,28.8425,-94.2433,2.0,69.68955701,33.04453056,-99999.0,'11111222,11111222,99999999' 
TABS,ioos:station:wmo:42050:1,2000-07-03T14:00:00Z,28.8425,-94.2433,2.0,68.73949055,32.45913431,-99999.0,'11111222,11111222,99999999' 
TABS,ioos:station:wmo:42050:1,2000-07-03T14:30:00Z,28.8425,-94.2433,2.0,68.86798277,33.06345415,-99999.0,'11111222,11111222,99999999' 
TABS,ioos:station:wmo:42050:1,2000-07-03T15:00:00Z,28.8425,-94.2433,2.0,68.69381723,35.66783565,-99999.0,'11111222,11111222,99999999' 
TABS,ioos:station:wmo:42050:1,2000-07-03T15:30:00Z,28.8425,-94.2433,2.0,67.40362702,37.60692622,-99999.0,'11111222,11111222,99999999' 
TABS,ioos:station:wmo:42050:1,2000-07-03T16:00:00Z,28.8425,-94.2433,2.0,66.88501618,38.71836903,-99999.0,'11111222,11111222,99999999' 
TABS,ioos:station:wmo:42050:1,2000-07-03T16:30:00Z,28.8425,-94.2433,2.0,66.04197159,39.62388421,-99999.0,'11111222,11111222,99999999' 
TABS,ioos:station:wmo:42050:1,2000-07-03T17:00:00Z,28.8425,-94.2433,2.0,65.34394554,40.00757053,-99999.0,'11111222,11111222,99999999' 
TABS,ioos:station:wmo:42050:1,2000-07-03T17:30:00Z,28.8425,-94.2433,2.0,66.30911484,42.63283359,-99999.0,'11111222,11111222,99999999' 
TABS,ioos:station:wmo:42050:1,2000-07-03T18:00:00Z,28.8425,-94.2433,2.0,67.90262616,42.77177808,-99999.0,'11111222,11111222,99999999' 
TABS,ioos:station:wmo:42050:1,2000-07-03T18:30:00Z,28.8425,-94.2433,2.0,67.20987087,43.47403823,-99999.0,'11111222,11111222,99999999' 
TABS,ioos:station:wmo:42050:1,2000-07-03T19:00:00Z,28.8425,-94.2433,2.0,67.52365453,42.08705502,-99999.0,'11111222,11111222,99999999' 
TABS,ioos:station:wmo:42050:1,2000-07-03T19:30:00Z,28.8425,-94.2433,2.0,68.78084652,40.75294591,-99999.0,'11111222,11111222,99999999' 
TABS,ioos:station:wmo:42050:1,2000-07-03T20:00:00Z,28.8425,-94.2433,2.0,78.38658165,39.24338925,-99999.0,'11111222,11111222,99999999' 
TABS,ioos:station:wmo:42050:1,2000-07-03T20:30:00Z,28.8425,-94.2433,2.0,79.1077948,35.50973106,-99999.0,'11111222,11111222,99999999' 
TABS,ioos:station:wmo:42050:1,2000-07-03T21:00:00Z,28.8425,-94.2433,2.0,81.54041218,33.44387537,-99999.0,'11111222,11111222,99999999' 
TABS,ioos:station:wmo:42050:1,2000-07-03T21:30:00Z,28.8425,-94.2433,2.0,81.00534981,32.42878043,-99999.0,'11111222,11111222,99999999' 
TABS,ioos:station:wmo:42050:1,2000-07-03T22:00:00Z,28.8425,-94.2433,2.0,87.04217483,31.78234101,-99999.0,'11111222,11111222,99999999' 
TABS,ioos:station:wmo:42050:1,2000-07-03T22:30:00Z,28.8425,-94.2433,2.0,92.20972794,30.86295028,-99999.0,'11111222,11111222,99999999' 
TABS,ioos:station:wmo:42050:1,2000-07-03T23:00:00Z,28.8425,-94.2433,2.0,96.105323,28.01892218,-99999.0,'11111222,11111222,99999999' 
TABS,ioos:station:wmo:42050:1,2000-07-03T23:30:00Z,28.8425,-94.2433,2.0,124.4572183,18.43434024,-99999.0,'11111222,11111222,99999999' 
TABS,ioos:station:wmo:42050:1,2000-07-04T00:00:00Z,28.8425,-94.2433,2.0,143.4173405,18.74223573,-99999.0,'11111222,11111222,99999999' 
TABS,ioos:station:wmo:42050:1,2000-07-04T00:30:00Z,28.8425,-94.2433,2.0,148.2419592,14.72456791,-99999.0,'11111222,11111222,99999999' 
TABS,ioos:station:wmo:42050:1,2000-07-04T01:00:00Z,28.8425,-94.2433,2.0,161.3632409,12.57961844,-99999.0,'11111222,11111222,99999999' 
TABS,ioos:station:wmo:42050:1,2000-07-04T01:30:00Z,28.8425,-94.2433,2.0,172.2621816,12.18090719,-99999.0,'11111222,11111222,99999999' 
TABS,ioos:station:wmo:42050:1,2000-07-04T02:00:00Z,28.8425,-94.2433,2.0,183.0338221,11.33588991,-99999.0,'11111222,11111222,99999999' 
TABS,ioos:station:wmo:42050:1,2000-07-04T02:30:00Z,28.8425,-94.2433,2.0,196.0524981,8.064452864,-99999.0,'11133222,11111222,99999999' 
TABS,ioos:station:wmo:42050:1,2000-07-04T03:00:00Z,28.8425,-94.2433,2.0,214.6091043,7.605918748,-99999.0,'11133222,11111222,99999999' 
TABS,ioos:station:wmo:42050:1,2000-07-04T03:30:00Z,28.8425,-94.2433,2.0,233.5716276,7.780231359,-99999.0,'11133222,11111222,99999999' 
TABS,ioos:station:wmo:42050:1,2000-07-04T04:00:00Z,28.8425,-94.2433,2.0,247.492869,4.676162957,-99999.0,'11133222,11111222,99999999' 
TABS,ioos:station:wmo:42050:1,2000-07-04T04:30:00Z,28.8425,-94.2433,2.0,262.0924349,4.361467643,-99999.0,'11133222,11111222,99999999' 
TABS,ioos:station:wmo:42050:1,2000-07-04T05:00:00Z,28.8425,-94.2433,2.0,265.3889405,3.73207717,-99999.0,'11133222,11111222,99999999' 
TABS,ioos:station:wmo:42050:1,2000-07-04T05:30:00Z,28.8425,-94.2433,2.0,317.322922,5.059970356,-99999.0,'11133222,11111222,99999999' 
TABS,ioos:station:wmo:42050:1,2000-07-04T06:00:00Z,28.8425,-94.2433,2.0,332.9251846,7.535847663,-99999.0,'11133222,11111222,99999999' 
TABS,ioos:station:wmo:42050:1,2000-07-04T06:30:00Z,28.8425,-94.2433,2.0,353.9191352,11.23320969,-99999.0,'11111222,11111222,99999999' 
TABS,ioos:station:wmo:42050:1,2000-07-04T07:00:00Z,28.8425,-94.2433,2.0,5.298287579,14.51199848,-99999.0,'11111222,11111222,99999999' 
TABS,ioos:station:wmo:42050:1,2000-07-04T07:30:00Z,28.8425,-94.2433,2.0,14.51199306,17.2400261,-99999.0,'11111222,11111222,99999999' 
TABS,ioos:station:wmo:42050:1,2000-07-04T08:00:00Z,28.8425,-94.2433,2.0,15.74471951,19.2003776,-99999.0,'11111222,11111222,99999999' 
TABS,ioos:station:wmo:42050:1,2000-07-04T08:30:00Z,28.8425,-94.2433,2.0,20.96247838,19.14724262,-99999.0,'11111222,11111222,99999999' 
TABS,ioos:station:wmo:42050:1,2000-07-04T09:00:00Z,28.8425,-94.2433,2.0,31.02889529,19.65203552,-99999.0,'11111222,11111222,99999999' 
TABS,ioos:station:wmo:42050:1,2000-07-04T09:30:00Z,28.8425,-94.2433,2.0,41.78744609,22.58513006,-99999.0,'11111222,11111222,99999999' 
TABS,ioos:station:wmo:42050:1,2000-07-04T10:00:00Z,28.8425,-94.2433,2.0,49.39628656,24.72247965,-99999.0,'11111222,11111222,99999999' 
TABS,ioos:station:wmo:42050:1,2000-07-04T10:30:00Z,28.8425,-94.2433,2.0,59.42771462,22.84585958,-99999.0,'11111222,11111222,99999999' 
TABS,ioos:station:wmo:42050:1,2000-07-04T11:00:00Z,28.8425,-94.2433,2.0,73.78101648,25.59880661,-99999.0,'11111222,11111222,99999999' 
TABS,ioos:station:wmo:42050:1,2000-07-04T11:30:00Z,28.8425,-94.2433,2.0,80.73341443,23.10148047,-99999.0,'11111222,11111222,99999999' 
TABS,ioos:station:wmo:42050:1,2000-07-04T12:00:00Z,28.8425,-94.2433,2.0,92.66418432,22.37418378,-99999.0,'11111222,11111222,99999999' 
TABS,ioos:station:wmo:42050:1,2000-07-04T12:30:00Z,28.8425,-94.2433,2.0,98.24921802,19.72407919,-99999.0,'11111222,11111222,99999999' 
TABS,ioos:station:wmo:42050:1,2000-07-04T13:00:00Z,28.8425,-94.2433,2.0,113.1461294,20.09777102,-99999.0,'11111222,11111222,99999999' 
TABS,ioos:station:wmo:42050:1,2000-07-04T13:30:00Z,28.8425,-94.2433,2.0,119.1141393,19.60735831,-99999.0,'11111222,11111222,99999999' 
TABS,ioos:station:wmo:42050:1,2000-07-04T14:00:00Z,28.8425,-94.2433,2.0,124.6314005,19.91919928,-99999.0,'11111222,11111222,99999999' 
TABS,ioos:station:wmo:42050:1,2000-07-04T14:30:00Z,28.8425,-94.2433,2.0,129.4176133,19.48125766,-99999.0,'11111222,11111222,99999999' 
TABS,ioos:station:wmo:42050:1,2000-07-04T15:00:00Z,28.8425,-94.2433,2.0,124.8398668,18.51962203,-99999.0,'11111222,11111222,99999999' 
TABS,ioos:station:wmo:42050:1,2000-07-04T15:30:00Z,28.8425,-94.2433,2.0,128.0349859,14.75305053,-99999.0,'11111222,11111222,99999999' 
TABS,ioos:station:wmo:42050:1,2000-07-04T16:00:00Z,28.8425,-94.2433,2.0,128.9892757,13.03291602,-99999.0,'11111222,11111222,99999999' 